Regional Weather Roundup
Issued by NWS

Home | Current Version | Previous Version | Text Only | Print | Product List | Glossary Off
Versions: 1 2 3 4 5 6 7 8 9 10 11 12 13 14 15 16 17 18 19 20 21 22 23 24 25 26 27 28 29 30 31 32 33 34 35 36 37 38 39 40 41 42 43 44 45 46 47 48 49 50

000
ASUS44 KMEG 020600
RWRTN
TENNESSEE HOURLY STATE WEATHER ROUNDUP
NATIONAL WEATHER SERVICE MEMPHIS TN
100 AM CDT THU OCT 02 2014

TNZ002-004-019-021-049-052-054-088>092-020700-
WEST TENNESSEE

CITY           SKY/WX    TMP DP  RH WIND       PRES   REMARKS
MEMPHIS INTL   CLEAR     75  62  64 SE6       29.90F
NWS MEMPHIS      N/A     73 N/A N/A MISG        N/A
JACKSON        CLEAR     70  60  70 S3        29.93S
DYERSBURG      CLEAR     72  55  56 SE5       29.92S
UNION CITY     PTCLDY    68  61  77 SE6       29.90F
$$

TNZ008-025-027-028-033-062-065-066-020700-
NORTH MIDDLE TENNESSEE

CITY           SKY/WX    TMP DP  RH WIND       PRES   REMARKS
NASHVILLE      CLEAR     66  58  75 S5        29.98R
CLARKSVILLE    CLEAR     64  59  83 E3        29.95S
COOKEVILLE     CLEAR     55  54  94 CALM      30.01S
CROSSVILLE     CLEAR     60  56  86 CALM      30.06F
$$

TNZ061-075-076-078-094-096-097-020700-
SOUTH MIDDLE TENNESSEE

CITY           SKY/WX    TMP DP  RH WIND       PRES   REMARKS
FAYETTEVILLE   CLEAR     63  55  77 S6        30.00S
TULLAHOMA        N/A     61  57  88 CALM      30.02S
WINCHESTER     CLEAR     64  59  82 SE3       30.02S
COLUMBIA       CLEAR    N/A N/A N/A CALM      29.96S
SHELBYVILLE    CLEAR     64  61  88 CALM      30.00S
$$

TNZ017-018-042-046-047-020700-
NORTHEAST TENNESSEE

CITY           SKY/WX    TMP DP  RH WIND       PRES   REMARKS
TRI CITIES     CLEAR     54  51  90 CALM      30.08S
ELIZABETHTON   CLEAR     55  52  88 NE5       30.09S
$$

TNZ012-013-036-069-073-074-020700-
CENTRAL EAST TENNESSEE

CITY           SKY/WX    TMP DP  RH WIND       PRES   REMARKS
KNOXVILLE      CLEAR     62  56  80 CALM      30.03S
OAK RIDGE      CLEAR     59  56  89 CALM      30.06S
GATLINBURG     CLEAR     55  54  94 CALM      30.04S
MORRISTOWN     CLEAR     57  54  88 CALM      30.06S
$$

TNZ083-085-099-020700-
SOUTHEAST TENNESSEE

CITY           SKY/WX    TMP DP  RH WIND       PRES   REMARKS
CHATTANOOGA    CLEAR     65  61  87 CALM      30.03S
$$

SKY/WX REPORTED AS FAIR MEANS FEW OR NO CLOUDS BELOW
12 THOUSAND FEET.



USA.gov is the U.S. government's official web portal to all federal, state and local government web resources and services.